DW0243 Weather Reports


time (UTC)temp
F
wind
direction
speed
knots
gust
knots
rain 1hr
in
rain 24hr
in
rain mn
in
humidity
%
barometer
mb
20190422081205 62 68 3.5 7.8 0.00 0.00 0.00 41 1011.4
20190422080705 61 69 3.5 7.0 0.00 0.00 0.00 43 1011.5
20190422080205 61 71 3.5 7.0 0.00 0.00 0.00 43 1011.6
20190422075705 61 67 3.5 7.0 0.00 0.00 0.00 43 1011.6
20190422075204 61 38 2.6 6.1 0.00 0.00 0.00 43 1011.6
20190422074704 60 79 2.6 7.8 0.00 0.00 0.00 46 1011.7
20190422074205 60 50 2.6 7.8 0.00 0.00 0.00 46 1011.7
20190422073705 59 84 2.6 6.1 0.00 0.00 0.00 47 1011.8
20190422073205 59 86 2.6 4.3 0.00 0.00 0.00 49 1011.8
20190422072705 58 119 2.6 4.3 0.00 0.00 0.00 51 1011.9
20190422072204 56 65 1.7 3.5 0.00 0.00 0.00 55 1011.9
20190422071705 55 69 0.9 1.7 0.00 0.00 0.00 57 1011.9
20190422071205 53 113 0.0 0.0 0.00 0.00 0.00 64 1011.9
20190422070705 52 113 0.0 0.9 0.00 0.00 0.00 66 1011.9
20190422070205 51 113 0.0 0.9 0.00 0.00 0.00 70 1011.9
20190422065705 50 113 0.0 0.9 0.00 0.00 0.00 71 1011.9
20190422065204 49 113 0.0 0.0 0.00 0.00 0.00 71 1012.0
20190422064704 48 113 0.0 0.0 0.00 0.00 0.00 73 1012.2
20190422064206 48 113 0.0 0.0 0.00 0.00 0.00 74 1012.2
20190422063705 48 113 0.0 0.0 0.00 0.00 0.00 72 1012.3
20190422063205 49 113 0.0 0.0 0.00 0.00 0.00 70 1012.3
20190422062904 48 113 0.0 0.0 0.00 0.00 0.00 70 1012.4
20190422062205 47 113 0.0 0.0 0.00 0.00 0.00 72 1012.4
20190422061705 47 113 0.0 0.0 0.00 0.00 0.00 74 1012.4
20190422061205 46 113 0.0 0.0 0.00 0.00 0.00 75 1012.4
20190422060704 45 113 0.0 0.0 0.00 0.00 0.00 77 1012.4
20190422060205 44 113 0.0 0.0 0.00 0.00 0.00 78 1012.5
20190422055705 44 113 0.0 0.0 0.00 0.00 0.00 76 1012.6
20190422055204 43 113 0.0 0.0 0.00 0.00 0.00 77 1012.6
20190422054705 43 113 0.0 0.0 0.00 0.00 0.00 77 1012.6
20190422054205 42 113 0.0 0.0 0.00 0.00 0.00 79 1012.7
20190422053704 42 113 0.0 0.0 0.00 0.00 0.00 79 1012.6
20190422053205 42 113 0.0 0.0 0.00 0.00 0.00 80 1012.7
20190422052704 41 113 0.0 0.0 0.00 0.00 0.00 81 1012.7
20190422052206 41 113 0.0 0.0 0.00 0.00 0.00 82 1012.7
20190422051705 40 113 0.0 0.0 0.00 0.00 0.00 83 1012.8
20190422051205 39 113 0.0 0.0 0.00 0.00 0.00 84 1012.8
20190422050705 39 113 0.0 0.0 0.00 0.00 0.00 85 1012.8
20190422050205 38 113 0.0 0.0 0.00 0.00 0.00 87 1012.8
20190422045705 37 113 0.0 0.0 0.00 0.00 0.00 87 1012.8
20190422045204 37 113 0.0 0.0 0.00 0.00 0.00 88 1012.8
20190422044704 37 113 0.0 0.0 0.00 0.00 0.00 87 1012.8
20190422044205 36 113 0.0 0.0 0.00 0.00 0.00 88 1012.9
20190422043705 36 113 0.0 0.0 0.00 0.00 0.00 87 1012.8
20190422043207 36 113 0.0 0.0 0.00 0.00 0.00 87 1012.8
20190422042705 37 113 0.0 0.0 0.00 0.00 0.00 87 1012.8
20190422042206 37 113 0.0 0.0 0.00 0.00 0.00 87 1012.8
20190422041705 37 113 0.0 0.0 0.00 0.00 0.00 87 1012.9
20190422041205 37 113 0.0 0.0 0.00 0.00 0.00 87 1013.0
20190422040705 37 113 0.0 0.0 0.00 0.00 0.00 87 1012.9
20190422040205 37 113 0.0 0.0 0.00 0.00 0.00 87 1013.0
20190422035704 37 113 0.0 0.0 0.00 0.00 0.00 86 1013.0
20190422035205 37 113 0.0 0.0 0.00 0.00 0.00 86 1013.1
20190422034706 37 113 0.0 0.0 0.00 0.00 0.00 86 1013.1
20190422034205 37 113 0.0 0.0 0.00 0.00 0.00 86 1013.2
20190422033705 37 113 0.0 0.0 0.00 0.00 0.00 85 1013.2
20190422033205 37 113 0.0 0.0 0.00 0.00 0.00 85 1013.2
20190422032705 38 113 0.0 0.0 0.00 0.00 0.00 84 1013.2
20190422032206 38 113 0.0 0.0 0.00 0.00 0.00 84 1013.2
20190422031705 38 113 0.0 0.0 0.00 0.00 0.00 84 1013.3
20190422031204 38 113 0.0 0.0 0.00 0.00 0.00 84 1013.4
20190422030705 38 113 0.0 0.0 0.00 0.00 0.00 84 1013.5
20190422030206 38 113 0.0 0.0 0.00 0.00 0.00 84 1013.5
20190422025705 39 113 0.0 0.0 0.00 0.00 0.00 84 1013.5
20190422025206 39 113 0.0 0.0 0.00 0.00 0.00 84 1013.6
20190422024705 39 113 0.0 0.0 0.00 0.00 0.00 84 1013.6
20190422024205 39 113 0.0 0.0 0.00 0.00 0.00 84 1013.7
20190422023704 39 113 0.0 0.0 0.00 0.00 0.00 84 1013.8
20190422023205 39 113 0.0 0.0 0.00 0.00 0.00 84 1013.8
20190422022705 39 113 0.0 0.0 0.00 0.00 0.00 83 1013.8
20190422022204 39 113 0.0 0.0 0.00 0.00 0.00 83 1013.8
20190422021705 39 113 0.0 0.0 0.00 0.00 0.00 83 1013.8
20190422021205 39 113 0.0 0.0 0.00 0.00 0.00 83 1013.9
20190422020705 40 113 0.0 0.0 0.00 0.00 0.00 82 1013.9
20190422020206 40 113 0.0 0.0 0.00 0.00 0.00 82 1014.0
20190422015705 40 113 0.0 0.0 0.00 0.00 0.00 82 1014.0
20190422015204 40 113 0.0 0.0 0.00 0.00 0.00 82 1014.1
20190422014704 40 113 0.0 0.0 0.00 0.00 0.00 81 1014.0
20190422014205 40 113 0.0 0.0 0.00 0.00 0.00 81 1014.0
20190422013705 40 113 0.0 0.0 0.00 0.00 0.00 81 1014.0
20190422013205 41 113 0.0 0.0 0.00 0.00 0.00 81 1014.0
20190422012704 41 113 0.0 0.0 0.00 0.00 0.00 81 1014.0
20190422012205 41 113 0.0 0.0 0.00 0.00 0.00 81 1014.1
20190422011705 41 113 0.0 0.0 0.00 0.00 0.00 81 1014.2
20190422011205 41 113 0.0 0.0 0.00 0.00 0.00 80 1014.2
20190422010705 41 113 0.0 0.0 0.00 0.00 0.00 80 1014.3
20190422010205 41 113 0.0 0.0 0.00 0.00 0.00 80 1014.3
20190422005705 42 113 0.0 0.0 0.00 0.00 0.00 79 1014.4
20190422005204 42 113 0.0 0.0 0.00 0.00 0.00 79 1014.4
20190422004705 42 113 0.0 0.0 0.00 0.00 0.00 79 1014.4
20190422004205 42 113 0.0 0.0 0.00 0.00 0.00 79 1014.4
20190422003705 42 113 0.0 0.0 0.00 0.00 0.00 78 1014.4
20190422003204 42 113 0.0 0.0 0.00 0.00 0.00 79 1014.5
20190422002704 42 113 0.0 0.0 0.00 0.00 0.00 78 1014.5
20190422002205 43 113 0.0 0.0 0.00 0.00 0.00 78 1014.6
20190422001705 43 113 0.0 0.0 0.00 0.00 0.00 78 1014.6
20190422001205 43 113 0.0 0.0 0.00 0.00 0.00 78 1014.7
20190422000705 43 113 0.0 0.0 0.00 0.00 0.00 78 1014.7
20190422000205 43 113 0.0 0.0 0.00 0.00 0.00 78 1014.8
20190421235705 44 113 0.0 0.0 0.00 0.00 0.00 77 1014.8
20190421235205 44 113 0.0 0.0 0.00 0.00 0.00 76 1014.8
20190421234705 44 113 0.0 0.0 0.00 0.00 0.00 76 1014.8
20190421234213 44 113 0.0 0.0 0.00 0.00 0.00 76 1014.8
20190421233705 44 113 0.0 0.0 0.00 0.00 0.00 76 1014.9
20190421233205 45 113 0.0 0.0 0.00 0.00 0.00 76 1014.9
20190421232705 45 113 0.0 0.0 0.00 0.00 0.00 75 1014.9
20190421232205 45 113 0.0 0.0 0.00 0.00 0.00 74 1015.0
20190421231705 46 113 0.0 0.0 0.00 0.00 0.00 74 1015.0
20190421231204 46 113 0.0 0.0 0.00 0.00 0.00 74 1015.0
20190421230705 46 113 0.0 0.0 0.00 0.00 0.00 73 1015.0
20190421230205 46 113 0.0 0.0 0.00 0.00 0.00 72 1015.0
20190421225705 47 113 0.0 0.0 0.00 0.00 0.00 72 1015.0
20190421225205 47 113 0.0 0.0 0.00 0.00 0.00 72 1015.0
20190421224705 47 113 0.0 0.0 0.00 0.00 0.00 71 1015.0
20190421224205 47 113 0.0 0.9 0.00 0.00 0.00 71 1015.0
20190421223705 48 113 0.0 0.9 0.00 0.00 0.00 71 1015.0
20190421223205 48 113 0.0 0.9 0.00 0.00 0.00 70 1015.0
20190421222705 48 113 0.0 0.0 0.00 0.00 0.00 70 1014.9
20190421222205 48 113 0.0 0.0 0.00 0.00 0.00 69 1015.0
20190421221705 48 113 0.0 0.0 0.00 0.00 0.00 69 1015.0
20190421221205 48 113 0.0 0.0 0.00 0.00 0.00 69 1015.0
20190421220705 48 113 0.0 0.0 0.00 0.00 0.00 69 1015.0
20190421220206 48 113 0.0 0.0 0.00 0.00 0.00 69 1015.1
20190421215705 48 113 0.0 0.0 0.00 0.00 0.00 69 1015.1
20190421215205 48 113 0.0 0.0 0.00 0.00 0.00 68 1015.1
20190421214705 48 113 0.0 0.0 0.00 0.00 0.00 67 1015.1
20190421214205 49 113 0.0 0.0 0.00 0.00 0.00 66 1015.1
20190421213704 50 113 0.0 0.0 0.00 0.00 0.00 64 1015.0
20190421213205 50 113 0.0 0.0 0.00 0.00 0.00 63 1015.1
20190421212705 51 113 0.0 0.0 0.00 0.00 0.00 63 1015.1
20190421212204 51 113 0.0 0.0 0.00 0.00 0.00 62 1015.1
20190421211704 51 113 0.0 0.0 0.00 0.00 0.00 62 1015.1
20190421211205 51 113 0.0 0.0 0.00 0.00 0.00 61 1015.2
20190421210705 52 113 0.0 0.0 0.00 0.00 0.00 61 1015.2
20190421210205 52 113 0.0 0.9 0.00 0.00 0.00 60 1015.2
20190421205705 52 113 0.0 1.7 0.00 0.00 0.00 59 1015.2
20190421205205 53 113 0.0 2.6 0.00 0.00 0.00 59 1015.2
20190421204704 53 113 0.9 2.6 0.00 0.00 0.00 57 1015.2
20190421204205 53 113 0.9 2.6 0.00 0.00 0.00 57 1015.3
20190421203705 53 113 0.9 2.6 0.00 0.00 0.00 57 1015.3
20190421203205 53 113 0.9 2.6 0.00 0.00 0.00 57 1015.3
20190421202705 53 113 0.0 1.7 0.00 0.00 0.00 58 1015.3
20190421202205 53 113 0.0 0.9 0.00 0.00 0.00 58 1015.3
20190421201705 53 113 0.0 0.9 0.00 0.00 0.00 59 1015.3
20190421201205 53 113 0.0 0.9 0.00 0.00 0.00 58 1015.4
20190421200704 53 113 0.0 0.9 0.00 0.00 0.00 58 1015.3
20190421200205 54 113 0.0 0.9 0.00 0.00 0.00 57 1015.5
20190421195705 54 113 0.0 0.9 0.00 0.00 0.00 57 1015.4
20190421195204 54 113 0.0 0.0 0.00 0.00 0.00 56 1015.5
20190421194705 55 113 0.0 0.9 0.00 0.00 0.00 56 1015.5
20190421194205 56 113 0.0 2.6 0.00 0.00 0.00 54 1015.5
20190421193705 57 113 0.0 3.5 0.00 0.00 0.00 53 1015.5
20190421193206 57 113 0.9 3.5 0.00 0.00 0.00 52 1015.5
20190421192705 57 113 2.6 3.5 0.00 0.00 0.00 51 1015.5
20190421192204 58 136 1.7 3.5 0.00 0.00 0.00 51 1015.5
20190421191705 58 80 0.9 2.6 0.00 0.00 0.00 50 1015.5
20190421191204 59 80 0.9 2.6 0.00 0.00 0.00 50 1015.4
20190421190704 60 80 0.9 2.6 0.00 0.00 0.00 48 1015.3
20190421190205 60 79 0.0 2.6 0.00 0.00 0.00 47 1015.3
20190421185705 60 79 0.0 2.6 0.00 0.00 0.00 47 1015.3
20190421185205 61 79 0.9 2.6 0.00 0.00 0.00 46 1015.2
20190421184705 61 78 0.9 2.6 0.00 0.00 0.00 46 1015.2
20190421184205 61 78 0.0 0.9 0.00 0.00 0.00 45 1015.2
20190421183704 62 76 0.0 0.9 0.00 0.00 0.00 46 1015.2
20190421183205 64 76 0.0 0.0 0.00 0.00 0.00 44 1015.2
20190421182705 65 76 0.0 0.9 0.00 0.00 0.00 43 1015.2
20190421182205 66 76 0.0 0.9 0.00 0.00 0.00 39 1015.2
20190421181705 67 76 0.0 0.9 0.00 0.00 0.00 37 1015.1
20190421181204 68 76 0.0 0.0 0.00 0.00 0.00 36 1015.1
20190421180705 69 76 0.0 0.0 0.00 0.00 0.00 33 1015.1
20190421180205 69 76 0.0 0.0 0.00 0.00 0.00 32 1015.1
20190421175705 70 76 0.0 0.0 0.00 0.00 0.00 32 1015.1
20190421175205 70 76 0.0 0.0 0.00 0.00 0.00 31 1015.1
20190421174705 71 76 0.0 2.6 0.00 0.00 0.00 30 1015.1
20190421174205 71 76 0.0 2.6 0.00 0.00 0.00 30 1015.1
20190421173704 71 76 0.0 2.6 0.00 0.00 0.00 30 1015.2
20190421173205 71 76 0.0 3.5 0.00 0.00 0.00 30 1015.2
20190421172704 71 76 0.9 3.5 0.00 0.00 0.00 29 1015.2
20190421172205 71 82 0.9 3.5 0.00 0.00 0.00 29 1015.2
20190421171705 72 43 0.0 1.7 0.00 0.00 0.00 28 1015.2
20190421171205 72 43 0.0 2.6 0.00 0.00 0.00 27 1015.2
20190421170705 72 63 0.9 4.3 0.00 0.00 0.00 28 1015.3
20190421170205 72 76 0.9 4.3 0.00 0.00 0.00 28 1015.3
20190421165705 72 78 0.9 4.3 0.00 0.00 0.00 28 1015.4
20190421165204 72 120 0.9 3.5 0.00 0.00 0.00 27 1015.5
20190421164706 72 80 0.9 4.3 0.00 0.00 0.00 27 1015.5
20190421164205 72 56 1.7 4.3 0.00 0.00 0.00 27 1015.6
20190421163705 72 75 0.9 6.1 0.00 0.00 0.00 26 1015.6
20190421163205 72 50 1.7 6.1 0.00 0.00 0.00 27 1015.7
20190421162706 72 32 1.7 4.3 0.00 0.00 0.00 26 1015.7
20190421162205 72 49 1.7 6.1 0.00 0.00 0.00 26 1015.7
20190421161705 72 86 1.7 6.1 0.00 0.00 0.00 26 1015.9
20190421161205 72 117 1.7 6.1 0.00 0.00 0.00 25 1015.9
20190421160705 72 77 1.7 6.1 0.00 0.00 0.00 26 1015.9
20190421160205 73 82 1.7 7.0 0.00 0.00 0.00 26 1015.9
20190421155705 72 13 2.6 7.0 0.00 0.00 0.00 26 1015.9
20190421155205 72 79 2.6 7.0 0.00 0.00 0.00 25 1015.9
20190421154705 73 92 1.7 7.0 0.00 0.00 0.00 24 1016.1
20190421154205 73 21 0.9 3.5 0.00 0.00 0.00 25 1016.2
20190421153705 74 355 0.9 6.1 0.00 0.00 0.00 25 1016.4
20190421153205 73 344 0.9 6.1 0.00 0.00 0.00 24 1016.3
20190421152704 73 333 1.7 5.2 0.00 0.00 0.00 24 1016.3
20190421152204 73 73 1.7 6.1 0.00 0.00 0.00 25 1016.4
20190421151704 73 109 0.9 6.1 0.00 0.00 0.00 24 1016.4
20190421151204 73 36 1.7 6.1 0.00 0.00 0.00 22 1016.5
20190421150705 74 74 0.9 5.2 0.00 0.00 0.00 23 1016.5
20190421150205 73 62 0.9 5.2 0.00 0.00 0.00 24 1016.5
20190421145704 73 82 1.7 7.0 0.00 0.00 0.00 24 1016.7
20190421145205 73 33 2.6 7.8 0.00 0.00 0.00 25 1016.6
20190421144705 73 18 3.5 7.8 0.00 0.00 0.00 25 1016.7
20190421144205 73 101 2.6 7.8 0.00 0.00 0.00 24 1016.8
20190421143705 73 37 1.7 7.0 0.00 0.00 0.00 25 1016.8
20190421143210 73 13 2.6 6.1 0.00 0.00 0.00 24 1016.9
20190421142705 73 63 2.6 6.1 0.00 0.00 0.00 24 1016.9
20190421142204 73 61 1.7 5.2 0.00 0.00 0.00 24 1017.0
20190421141705 73 32 0.9 7.8 0.00 0.00 0.00 24 1017.0
20190421141205 73 50 1.7 10.4 0.00 0.00 0.00 24 1017.1
20190421140705 73 33 3.5 10.4 0.00 0.00 0.00 26 1017.2
20190421140205 73 5 2.6 5.2 0.00 0.00 0.00 24 1017.2
20190421135705 73 355 1.7 5.2 0.00 0.00 0.00 24 1017.2
20190421135205 73 320 1.7 5.2 0.00 0.00 0.00 26 1017.3
20190421134706 73 25 1.7 9.6 0.00 0.00 0.00 25 1017.3
20190421134206 73 350 1.7 9.6 0.00 0.00 0.00 26 1017.4
20190421133705 73 325 2.6 7.0 0.00 0.00 0.00 26 1017.4
20190421133204 73 85 2.6 7.0 0.00 0.00 0.00 24 1017.6
20190421132705 73 323 1.7 6.1 0.00 0.00 0.00 26 1017.6
20190421132205 72 36 1.7 7.8 0.00 0.00 0.00 25 1017.7
20190421131705 72 30 2.6 7.8 0.00 0.00 0.00 28 1017.8
20190421131204 73 53 2.6 7.8 0.00 0.00 0.00 26 1017.9
20190421130705 73 58 2.6 8.7 0.00 0.00 0.00 27 1017.9
20190421130205 73 96 2.6 8.7 0.00 0.00 0.00 27 1018.0
20190421125704 72 9 1.7 8.7 0.00 0.00 0.00 27 1018.1
20190421125205 72 63 1.7 7.8 0.00 0.00 0.00 27 1018.2
20190421124704 72 59 2.6 7.8 0.00 0.00 0.00 26 1018.3
20190421124205 72 22 2.6 5.2 0.00 0.00 0.00 27 1018.4
20190421123705 72 84 1.7 7.0 0.00 0.00 0.00 28 1018.4
20190421123205 72 84 2.6 9.6 0.00 0.00 0.00 27 1018.5
20190421122704 71 86 3.5 9.6 0.00 0.00 0.00 29 1018.5
20190421122205 72 91 3.5 9.6 0.00 0.00 0.00 27 1018.6
20190421121705 71 93 2.6 7.8 0.00 0.00 0.00 28 1018.6
20190421121205 71 302 2.6 9.6 0.00 0.00 0.00 28 1018.6
20190421120704 71 72 3.5 9.6 0.00 0.00 0.00 29 1018.7
20190421120205 71 53 4.3 8.7 0.00 0.00 0.00 29 1018.8
20190421115705 71 98 1.7 7.8 0.00 0.00 0.00 28 1018.9
20190421115204 71 114 2.6 7.0 0.00 0.00 0.00 28 1018.9
20190421114705 71 76 3.5 7.8 0.00 0.00 0.00 28 1019.0
20190421114205 71 88 2.6 7.8 0.00 0.00 0.00 29 1019.0
20190421113705 71 64 3.5 9.6 0.00 0.00 0.00 28 1019.1
20190421113205 71 117 2.6 9.6 0.00 0.00 0.00 29 1019.1
20190421112704 71 65 2.6 7.8 0.00 0.00 0.00 27 1019.2
20190421112205 71 53 2.6 7.8 0.00 0.00 0.00 28 1019.2
20190421111705 71 54 1.7 6.1 0.00 0.00 0.00 28 1019.3
20190421111204 71 329 1.7 6.1 0.00 0.00 0.00 28 1019.3
20190421110705 71 130 2.6 6.1 0.00 0.00 0.00 29 1019.4
20190421110205 71 116 1.7 4.3 0.00 0.00 0.00 30 1019.5
20190421105705 70 86 1.7 4.3 0.00 0.00 0.00 30 1019.5
20190421105204 70 15 1.7 7.8 0.00 0.00 0.00 31 1019.6
20190421104705 70 26 2.6 7.8 0.00 0.00 0.00 30 1019.6
20190421104205 69 83 2.6 7.8 0.00 0.00 0.00 33 1019.8
20190421103705 69 69 1.7 5.2 0.00 0.00 0.00 31 1019.9
20190421103205 69 32 1.7 6.1 0.00 0.00 0.00 32 1019.9
20190421102705 69 78 1.7 6.1 0.00 0.00 0.00 34 1020.1
20190421102205 69 53 2.6 7.8 0.00 0.00 0.00 31 1020.1
20190421101706 68 95 2.6 7.8 0.00 0.00 0.00 33 1020.2
20190421101204 68 67 2.6 7.8 0.00 0.00 0.00 31 1020.3
20190421100705 68 80 1.7 4.3 0.00 0.00 0.00 33 1020.3
20190421100205 68 355 1.7 5.2 0.00 0.00 0.00 33 1020.4
20190421095705 68 319 1.7 5.2 0.00 0.00 0.00 33 1020.5
20190421095207 68 76 1.7 5.2 0.00 0.00 0.00 33 1020.5
20190421094705 67 115 1.7 6.1 0.00 0.00 0.00 35 1020.6
20190421094205 67 25 2.6 6.1 0.00 0.00 0.00 35 1020.6
20190421093705 66 57 2.6 6.1 0.00 0.00 0.00 36 1020.7
20190421093205 66 74 2.6 6.1 0.00 0.00 0.00 36 1020.8
20190421092705 66 79 1.7 4.3 0.00 0.00 0.00 36 1020.9
20190421092204 66 51 1.7 4.3 0.00 0.00 0.00 37 1020.9
20190421091205 66 67 1.7 6.1 0.00 0.00 0.00 37 1021.0
20190421090704 65 44 1.7 4.3 0.00 0.00 0.00 37 1021.0
20190421090207 65 57 1.7 5.2 0.00 0.00 0.00 38 1021.0
20190421085705 64 34 2.6 5.2 0.00 0.00 0.00 41 1021.1
20190421085205 64 82 2.6 6.1 0.00 0.00 0.00 40 1021.1
20190421084705 63 92 2.6 6.1 0.00 0.00 0.00 40 1021.2
20190421084204 63 80 3.5 7.0 0.00 0.00 0.00 41 1021.1
20190421083705 63 49 3.5 7.0 0.00 0.00 0.00 41 1021.3
20190421083205 63 70 2.6 7.0 0.00 0.00 0.00 42 1021.3
20190421082705 62 78 1.7 6.1 0.00 0.00 0.00 43 1021.3
20190421082205 62 71 1.7 6.1 0.00 0.00 0.00 43 1021.4
20190421081705 61 53 1.7 6.1 0.00 0.00 0.00 45 1021.4